Regional Weather Roundup
Issued by NWS New Orleans/Baton Rouge, LA

Home | Current Version | Previous Version | Graphics & Text | Print | Product List | Glossary On
Versions: 1 2 3 4 5 6 7 8 9 10 11 12 13 14 15 16 17 18 19 20 21 22 23 24 25 26 27 28 29 30 31 32 33 34 35 36 37 38 39 40 41 42 43 44 45 46 47 48 49 50
071
ASUS44 KLIX 182001
RWRLIX
NEW ORLEANS REGIONAL WEATHER ROUNDUP
NATIONAL WEATHER SERVICE NEW ORLEANS LA
200 PM CST THU DEC 18 2014

NOTE: "FAIR" INDICATES FEW OR NO CLOUDS BELOW 12,000 FEET WITH NO
      SIGNIFICANT WEATHER AND/OR OBSTRUCTIONS TO VISIBILITY.
      SKY/WX - SKY CONDITION AND SIGNIFICANT WEATHER.
      TMP - AIR TEMPERATURE.     DP    - DEWPOINT TEMPERATURE.
      RH  - RELATIVE HUMIDITY.   PRES  - PRESSURE.
      HI  - HEAT INDEX.          WCI   - WIND CHILL INDEX.

*  THESE STATIONS ARE NOT NWS OR FAA STATIONS AND ARE NOT UNDER
   NWS QUALITY CONTROL.

LAZ038-040-048-061>063-065>067-069-182100-
SOUTHEAST LOUISIANA

CITY           SKY/WX    TMP DP  RH WIND       PRES   REMARKS
N.O. AUDUBON   NOT AVBL
N.O. INTL ARPT CLOUDY    68  54  60 S10       30.09F
N.O. LAKEFRONT CLOUDY    65  53  65 E10       30.10F
N.O. DOWNTOWN* CLOUDY    66  52  59 SE8       30.10F
SLIDELL        PTSUNNY   64  51  62 S9        30.10F
BATON ROUGE    CLOUDY    64  53  67 S6        30.09S
BOOTHVILLE     MOSUNNY   66  58  75 E9        30.11F
BELLE CHASSE   PTSUNNY   66  54  65 SE10      30.09F
BOGALUSA*        N/A     68  48  49 SW5       30.11S
GALLIANO*      NOT AVBL
NEW ROADS*     NOT AVBL
GONZALES*      NOT AVBL
HAMMOND*       NOT AVBL
HOUMA*         PTSUNNY   70  57  64 SE8       30.09F
PORT FOURCHON* CLEAR     66  59  77 E10       30.13S

$$

MSZ070-080>082-182100-
SOUTHERN MISSISSIPPI

CITY           SKY/WX    TMP DP  RH WIND       PRES   REMARKS
MCCOMB         LGT RAIN  55  48  77 N8        30.12S
GULFPORT       SUNNY     60  46  59 SE8       30.12F
BILOXI         SUNNY     61  43  51 S8        30.12F
PASCAGOULA     PTSUNNY   66  45  46 S8        30.11F
STENNIS ARPT*  MOSUNNY   61  45  55 SE7       30.12F

$$

COASTAL OBSERVATIONS
LAKE AND NEARSHORE STATIONS

STATION/POSITION TIME  TEMP    WIND        PRES    WAVE
                       AIR SEA DIR/SP/G            HT/PER
                 (UTC) (F)     (DEG/KT/KT) (MB)    (FT/S)
PASCAGOULA       1900   62     140/  5/  9 1019.3
WAVELAND YACHT   1900   56     150/ 11/ 13 1019.0
GRAND ISLE       1900   65 61  100/  7/ 10 1019.5
SOUTHWEST PASS   1900   67                 1019.8
NEW CANAL        1900   66 58  160/  5/  9 1019.5
SHELL BEACH      1900   62 60  110/ 11/ 14 1019.2

OFFSHORE STATIONS

STATION/POSITION TIME  TEMP    WIND        PRES    WAVE
                       AIR SEA DIR/SP/G            HT/PER
                 (UTC) (F)     (DEG/KT/KT) (MB)    (FT/S)
64 S DAUPHIN ISL 2000   67 74  140/  4/  8 1019.6    1/ 6

$$




USA.gov is the U.S. government's official web portal to all federal, state and local government web resources and services.